Weather History for Flippin, AR

Change the Weather History Date:

Monday, December 10, 2012

  Actual Average Record
Temperature  
Mean Temperature 31 °F -  
Max Temperature 39 °F 48 °F 71 °F (1996)
Min Temperature 21 °F 31 °F 17 °F (2005)
Degree Days  
Heating Degree Days 34    
Moisture  
Dew Point 17 °F    
Average Humidity 59    
Maximum Humidity 80    
Minimum Humidity 51    
Precipitation  
Precipitation 0.00 in - - ()
Sea Level Pressure  
Sea Level Pressure 30.01 in    
Wind  
Wind Speed 10 mph (NW)    
Max Wind Speed 16 mph    
Max Gust Speed 24 mph    
Visibility 10 miles    
Events      
Averages and records for this station are not official NWS values.
T = Trace of Precipitation, MM = Missing Value Source: NWS Daily Summary

Daily Weather History Graph

Daily Weather History Graph

Search for Another Location

Airport:

Trip Planner

Search our weather history database for the weather conditions in past years. The results will help you decide how hot, cold, wet, or windy it might be!

Date:

Astronomy

Dec. 10, 2012 Rise Set
Actual Time 7:11 AM CST 4:55 PM CST
Civil Twilight 6:42 AM CST 5:24 PM CST
Nautical Twilight 6:10 AM CST 5:56 PM CST
Astronomical Twilight 5:39 AM CST 6:27 PM CST
Moon 3:58 AM CST (12/10) 2:42 PM CST (12/10)
Length of Visible Light 10h 41m
Length of Day
9h 44m
Waning Crescent, 10% of the Moon is Illuminated
Dec 10
Waning Crescent
Dec 13
New
Dec 19
First Quarter
Dec 28
Full
Jan 4
Last Quarter

Hourly Weather History & Observations

Time (CST) Temp. Windchill Dew Point Humidity Pressure Visibility Wind Dir Wind Speed Gust Speed Precip Events Conditions
12:15 AM 39.2 °F 30.5 °F 26.6 °F 61% 29.94 in 10.0 mi NW 16.1 mph 21.9 mph N/A   Mostly Cloudy
12:55 AM 35.6 °F 29.2 °F 24.8 °F 65% 29.94 in 10.0 mi WNW 8.1 mph 17.3 mph N/A   Clear
1:16 AM 35.6 °F 26.2 °F 23.0 °F 60% 29.94 in 10.0 mi NW 15.0 mph 20.7 mph N/A   Clear
1:35 AM 33.8 °F 25.8 °F 21.2 °F 60% 29.94 in 10.0 mi NW 10.4 mph - N/A   Clear
1:55 AM 33.8 °F 26.4 °F 21.2 °F 60% 29.94 in 10.0 mi NW 9.2 mph 19.6 mph N/A   Clear
2:15 AM 32.0 °F 23.0 °F 19.4 °F 60% 29.95 in 10.0 mi NNW 11.5 mph 17.3 mph N/A   Clear
2:55 AM 30.2 °F 25.4 °F 17.6 °F 60% 29.95 in 10.0 mi NW 4.6 mph - N/A   Clear
3:15 AM 30.2 °F 21.9 °F 15.8 °F 55% 29.95 in 10.0 mi NW 9.2 mph 16.1 mph N/A   Clear
3:36 AM 30.2 °F 22.6 °F 15.8 °F 55% 29.94 in 10.0 mi NW 8.1 mph - N/A   Clear
4:15 AM 30.2 °F 22.6 °F 17.6 °F 60% 29.94 in 10.0 mi NNW 8.1 mph - N/A   Clear
4:55 AM 28.4 °F 18.0 °F 15.8 °F 59% 29.96 in 10.0 mi NW 12.7 mph 21.9 mph N/A   Partly Cloudy
5:15 AM 28.4 °F 18.0 °F 15.8 °F 59% 29.95 in 10.0 mi NW 12.7 mph 21.9 mph N/A   Clear
5:55 AM 28.4 °F 19.1 °F 15.8 °F 59% 29.97 in 10.0 mi NW 10.4 mph - N/A   Partly Cloudy
6:15 AM 28.4 °F 18.5 °F 15.8 °F 59% 29.99 in 10.0 mi WNW 11.5 mph 18.4 mph N/A   Mostly Cloudy
7:15 AM 28.4 °F 19.1 °F 15.8 °F 59% 30.01 in 10.0 mi WNW 10.4 mph - N/A   Mostly Cloudy
8:15 AM 28.4 °F 19.1 °F 15.8 °F 59% 30.01 in 10.0 mi WNW 10.4 mph 19.6 mph N/A   Partly Cloudy
8:55 AM 28.4 °F 18.0 °F 15.8 °F 59% 30.03 in 10.0 mi NW 12.7 mph - N/A   Partly Cloudy
9:15 AM 28.4 °F 17.5 °F 14.0 °F 55% 30.04 in 10.0 mi NW 13.8 mph 24.2 mph N/A   Partly Cloudy
9:35 AM 28.4 °F 18.5 °F 14.0 °F 55% 30.03 in 10.0 mi WNW 11.5 mph - N/A   Mostly Cloudy
9:56 AM 28.4 °F 18.5 °F 15.8 °F 59% 30.03 in 10.0 mi WNW 11.5 mph - N/A   Scattered Clouds
10:15 AM 30.2 °F 19.3 °F 15.8 °F 55% 30.04 in 10.0 mi NW 15.0 mph 19.6 mph N/A   Mostly Cloudy
10:35 AM 30.2 °F 20.2 °F 15.8 °F 55% 30.03 in 10.0 mi NW 12.7 mph 24.2 mph N/A   Mostly Cloudy
11:15 AM 32.0 °F 22.5 °F 17.6 °F 55% 30.01 in 10.0 mi WNW 12.7 mph 19.6 mph N/A   Mostly Cloudy
11:35 AM 30.2 °F 18.9 °F 17.6 °F 60% 30.02 in 10.0 mi WNW 16.1 mph 20.7 mph N/A   Overcast
12:15 PM 32.0 °F 22.1 °F 17.6 °F 55% 30.00 in 10.0 mi NW 13.8 mph 17.3 mph N/A   Overcast
12:35 PM 33.8 °F 25.3 °F 17.6 °F 52% 30.01 in 10.0 mi NW 11.5 mph 20.7 mph N/A   Overcast
1:16 PM 33.8 °F 26.4 °F 17.6 °F 52% 29.99 in 10.0 mi NNW 9.2 mph 18.4 mph N/A   Overcast
1:35 PM 33.8 °F 25.3 °F 17.6 °F 52% 29.99 in 10.0 mi WNW 11.5 mph 24.2 mph N/A   Overcast
1:55 PM 32.0 °F 22.1 °F 15.8 °F 51% 29.99 in 10.0 mi NW 13.8 mph 18.4 mph N/A   Overcast
2:55 PM 33.8 °F 26.4 °F 17.6 °F 52% 30.00 in 10.0 mi NNW 9.2 mph - N/A   Mostly Cloudy
3:36 PM 33.8 °F 25.8 °F 17.6 °F 52% 30.01 in 10.0 mi NW 10.4 mph - N/A   Scattered Clouds
4:35 PM 32.0 °F 26.4 °F 17.6 °F 55% 30.01 in 10.0 mi WNW 5.8 mph - N/A   Clear
5:15 PM 30.2 °F 25.4 °F 17.6 °F 60% 30.01 in 10.0 mi NW 4.6 mph - N/A   Clear
5:35 PM 30.2 °F 26.7 °F 17.6 °F 60% 30.01 in 10.0 mi NW 3.5 mph - N/A   Clear
5:55 PM 30.2 °F 26.7 °F 15.8 °F 55% 30.01 in 10.0 mi NW 3.5 mph - N/A   Clear
6:15 PM 28.4 °F 23.3 °F 17.6 °F 64% 30.03 in 10.0 mi WNW 4.6 mph - N/A   Clear
6:35 PM 28.4 °F 24.6 °F 15.8 °F 59% 30.04 in 10.0 mi West 3.5 mph - N/A   Clear
6:55 PM 26.6 °F - 15.8 °F 64% 30.05 in 10.0 mi Calm Calm - N/A   Clear
7:35 PM 26.6 °F 22.6 °F 15.8 °F 64% 30.06 in 10.0 mi WNW 3.5 mph - N/A   Clear
8:55 PM 26.6 °F - 15.8 °F 64% 30.06 in 10.0 mi Calm Calm - N/A   Clear
9:15 PM 26.6 °F 22.6 °F 15.8 °F 64% 30.06 in 10.0 mi West 3.5 mph - N/A   Clear
9:36 PM 26.6 °F 22.6 °F 15.8 °F 64% 30.06 in 10.0 mi WSW 3.5 mph - N/A   Clear
9:55 PM 24.8 °F - 15.8 °F 69% 30.06 in 10.0 mi Calm Calm - N/A   Clear
10:35 PM 23.0 °F 18.4 °F 15.8 °F 74% 30.07 in 10.0 mi WSW 3.5 mph - N/A   Clear
11:15 PM 24.8 °F 19.1 °F 15.8 °F 69% 30.09 in 10.0 mi West 4.6 mph - N/A   Clear
11:55 PM 21.2 °F - 15.8 °F 80% 30.09 in 10.0 mi Calm Calm - N/A   Clear